AMC-6 (GE-6)

Last updated on Sun May 19 2024 00:02:37 GMT+0000 (Coordinated Universal Time)

1 26580U 00067A 24139.50469286 .00000116 00000+0 00000+0 0 9999 2 26580 0.0473 87.7356 0002526 351.7196 199.8934 1.00271492 86272
UTC large
Height (km)
Speed (km/s)
/
Latitude / Longitude
Inclination (degrees)
Orbital Period (minutes)
Azimuth
Elevation
Range (km)
Doppler Factor

Next 0 passes for location: London (51.5072 / 0.1276)

Sorry there are no passes over London.